Glenwood, MN

12:30 PM CDT on September 19, 2017 (GMT -0500)
Glenwood Municipal

Weather History for KGHW - November, 2012

Change the Weather History Date:

Friday, November 16, 2012

  Actual Average Record
Temperature  
Mean Temperature 29 °F -  
Max Temperature 41 °F 40 °F 66 °F (2001)
Min Temperature 17 °F 21 °F -10 °F (1959)
Degree Days  
Heating Degree Days 36    
Moisture  
Dew Point 17 °F    
Average Humidity 64    
Maximum Humidity 93    
Minimum Humidity 36    
Precipitation  
Precipitation 0.00 in - - ()
Sea Level Pressure  
Sea Level Pressure 30.35 in    
Wind  
Wind Speed 7 mph (SE)    
Max Wind Speed 17 mph    
Max Gust Speed 21 mph    
Visibility 10 miles    
Events      
Averages and records for this station are not official NWS values.
T = Trace of Precipitation, MM = Missing Value Source: NWS Daily Summary

Daily Weather History Graph

Daily Weather History Graph

Search for Another Location

Airport or City:

Trip Planner

Search our weather history database for the weather conditions in past years. The results will help you decide how hot, cold, wet, or windy it might be!

Date:

Astronomy

Nov. 16, 2012 Rise Set
Actual Time 7:22 AM CST 4:49 PM CST
Civil Twilight 6:50 AM CST 5:21 PM CST
Nautical Twilight 6:14 AM CST 5:57 PM CST
Astronomical Twilight 5:39 AM CST 6:32 PM CST
Moon 10:20 AM CST (11/16) 7:47 PM CST (11/16)
Length of Visible Light 10h 30m
Length of Day
9h 26m
Waxing Crescent, 12% of the Moon is Illuminated
Nov 16
Waxing Crescent
Nov 20
First Quarter
Nov 28
Full
Dec 6
Last Quarter
Dec 13
New

Hourly Weather History & Observations

Time (CST) Temp. Windchill Dew Point Humidity Pressure Visibility Wind Dir Wind Speed Gust Speed Precip Events Conditions
12:13 AM 24.8 °F - 15.8 °F 69% 30.48 in 10.0 mi Calm Calm - N/A   Clear
12:33 AM 23.0 °F 18.4 °F 15.8 °F 74% 30.47 in 10.0 mi North 3.5 mph - N/A   Clear
12:53 AM 23.0 °F - 15.8 °F 74% 30.47 in 10.0 mi Calm Calm - N/A   Clear
1:13 AM 21.2 °F - 15.8 °F 80% 30.47 in 10.0 mi Calm Calm - N/A   Clear
1:33 AM 21.2 °F - 15.8 °F 80% 30.47 in 10.0 mi Calm Calm - N/A   Clear
1:53 AM 21.2 °F - 15.8 °F 80% 30.47 in 10.0 mi Calm Calm - N/A   Clear
2:13 AM 21.2 °F - 15.8 °F 80% 30.47 in 10.0 mi Calm Calm - N/A   Clear
2:34 AM 21.2 °F 16.4 °F 15.8 °F 80% 30.46 in 10.0 mi NE 3.5 mph - N/A   Clear
2:53 AM 21.2 °F 14.9 °F 15.8 °F 80% 30.46 in 10.0 mi ENE 4.6 mph - N/A   Clear
3:13 AM 19.4 °F 11.5 °F 15.8 °F 86% 30.45 in 10.0 mi ENE 5.8 mph - N/A   Clear
3:34 AM 19.4 °F 11.5 °F 14.0 °F 80% 30.45 in 10.0 mi East 5.8 mph - N/A   Clear
3:53 AM 19.4 °F 11.5 °F 15.8 °F 86% 30.44 in 10.0 mi East 5.8 mph - N/A   Clear
4:13 AM 17.6 °F 10.7 °F 15.8 °F 93% 30.44 in 10.0 mi East 4.6 mph - N/A   Clear
4:34 AM 17.6 °F 9.3 °F 14.0 °F 86% 30.43 in 10.0 mi East 5.8 mph - N/A   Clear
4:53 AM 19.4 °F 12.8 °F 12.2 °F 74% 30.43 in 10.0 mi ESE 4.6 mph - N/A   Clear
5:13 AM 19.4 °F 11.5 °F 12.2 °F 74% 30.43 in 10.0 mi ESE 5.8 mph - N/A   Clear
5:34 AM 19.4 °F 10.4 °F 12.2 °F 74% 30.43 in 10.0 mi ESE 6.9 mph - N/A   Clear
5:53 AM 17.6 °F 8.2 °F 12.2 °F 79% 30.43 in 10.0 mi ESE 6.9 mph - N/A   Clear
6:13 AM 17.6 °F 8.2 °F 12.2 °F 79% 30.42 in 10.0 mi SE 6.9 mph - N/A   Clear
6:34 AM 19.4 °F 9.5 °F 12.2 °F 74% 30.41 in 10.0 mi ESE 8.1 mph - N/A   Clear
6:53 AM 19.4 °F 11.5 °F 12.2 °F 74% 30.41 in 10.0 mi SE 5.8 mph - N/A   Clear
7:13 AM 19.4 °F 9.5 °F 12.2 °F 74% 30.41 in 10.0 mi SE 8.1 mph - N/A   Clear
7:34 AM 17.6 °F 8.2 °F 12.2 °F 79% 30.42 in 10.0 mi SE 6.9 mph - N/A   Clear
7:53 AM 19.4 °F - 14.0 °F 80% 30.43 in 10.0 mi North - - N/A   Clear
8:13 AM 21.2 °F 13.6 °F 15.8 °F 80% 30.43 in 10.0 mi SE 5.8 mph - N/A   Clear
8:34 AM 21.2 °F 11.7 °F 15.8 °F 80% 30.43 in 10.0 mi SE 8.1 mph - N/A   Clear
8:53 AM 24.8 °F 15.3 °F 17.6 °F 74% 30.43 in 10.0 mi SE 9.2 mph - N/A   Clear
9:13 AM 26.6 °F 17.5 °F 17.6 °F 69% 30.43 in 10.0 mi SSE 9.2 mph - N/A   Clear
9:33 AM 28.4 °F 19.7 °F 17.6 °F 64% 30.43 in 10.0 mi SSE 9.2 mph - N/A   Clear
9:53 AM 30.2 °F 21.9 °F 17.6 °F 60% 30.43 in 10.0 mi SSE 9.2 mph - N/A   Clear
10:13 AM 32.0 °F 22.5 °F 15.8 °F 51% 30.43 in 10.0 mi South 12.7 mph - N/A   Clear
10:33 AM 33.8 °F 25.8 °F 15.8 °F 48% 30.43 in 10.0 mi South 10.4 mph - N/A   Clear
10:53 AM 33.8 °F 25.3 °F 15.8 °F 48% 30.43 in 10.0 mi SSE 11.5 mph - N/A   Clear
11:12 AM 35.6 °F 28.6 °F 15.8 °F 44% 30.42 in 10.0 mi South 9.2 mph - N/A   Clear
11:33 AM 35.6 °F 28.6 °F 15.8 °F 44% - 10.0 mi SSE 9.2 mph - N/A   Clear
11:53 AM 35.6 °F 27.5 °F 14.0 °F 41% 30.40 in 10.0 mi SSE 11.5 mph - N/A   Clear
12:13 PM 37.4 °F 30.3 °F 14.0 °F 38% - 10.0 mi South 10.4 mph - N/A   Clear
12:33 PM 37.4 °F 29.3 °F 15.8 °F 41% 30.37 in 10.0 mi SSE 12.7 mph - N/A   Clear
12:54 PM 39.2 °F 32.5 °F 15.8 °F 39% 30.36 in 10.0 mi SE 10.4 mph - N/A   Clear
1:13 PM 39.2 °F 30.8 °F 15.8 °F 39% 30.35 in 10.0 mi SSE 15.0 mph - N/A   Clear
1:33 PM 39.2 °F 31.2 °F 15.8 °F 39% 30.33 in 10.0 mi SE 13.8 mph - N/A   Clear
1:54 PM 41.0 °F 33.5 °F 15.8 °F 36% 30.33 in 10.0 mi SE 13.8 mph - N/A   Clear
2:13 PM 39.2 °F 30.8 °F 14.0 °F 36% 30.32 in 10.0 mi SE 15.0 mph - N/A   Clear
2:33 PM 39.2 °F 30.8 °F 15.8 °F 39% 30.31 in 10.0 mi SE 15.0 mph - N/A   Clear
2:53 PM 41.0 °F 33.5 °F 15.8 °F 36% 30.30 in 10.0 mi SE 13.8 mph - N/A   Clear
3:13 PM 39.2 °F 31.6 °F 15.8 °F 39% 30.30 in 10.0 mi SE 12.7 mph - N/A   Clear
3:34 PM 39.2 °F 32.0 °F 17.6 °F 42% 30.30 in 10.0 mi SE 11.5 mph - N/A   Clear
3:53 PM 39.2 °F 32.0 °F 17.6 °F 42% 30.29 in 10.0 mi SE 11.5 mph - N/A   Clear
4:13 PM 37.4 °F 30.3 °F 17.6 °F 45% 30.28 in 10.0 mi ESE 10.4 mph - N/A   Clear
4:34 PM 35.6 °F 28.0 °F 17.6 °F 48% 30.27 in 10.0 mi SE 10.4 mph - N/A   Clear
4:53 PM 35.6 °F 27.5 °F 19.4 °F 52% 30.27 in 10.0 mi SE 11.5 mph - N/A   Clear
5:13 PM 33.8 °F 25.3 °F 19.4 °F 56% 30.25 in 10.0 mi SE 11.5 mph - N/A   Clear
5:34 PM 33.8 °F 24.8 °F 19.4 °F 56% 30.25 in 10.0 mi SE 12.7 mph - N/A   Clear
5:53 PM 33.8 °F 25.3 °F 19.4 °F 56% 30.25 in 10.0 mi SE 11.5 mph - N/A   Clear
6:13 PM 33.8 °F 24.3 °F 19.4 °F 56% 30.24 in 10.0 mi SE 13.8 mph - N/A   Clear
6:33 PM 33.8 °F 24.8 °F 19.4 °F 56% 30.24 in 10.0 mi SE 12.7 mph - N/A   Clear
6:53 PM 32.0 °F 23.0 °F 21.2 °F 64% 30.24 in 10.0 mi SE 11.5 mph - N/A   Clear
7:13 PM 32.0 °F 23.0 °F 21.2 °F 64% 30.23 in 10.0 mi SE 11.5 mph - N/A   Clear
7:53 PM 32.0 °F 24.2 °F 21.2 °F 64% 30.23 in 10.0 mi SE 9.2 mph - N/A   Clear
8:13 PM 32.0 °F 23.0 °F 21.2 °F 64% 30.23 in 10.0 mi SE 11.5 mph - N/A   Clear
8:33 PM 30.2 °F 20.2 °F 21.2 °F 69% 30.22 in 10.0 mi SE 12.7 mph - N/A   Clear
8:53 PM 30.2 °F 21.9 °F 23.0 °F 75% 30.22 in 10.0 mi SE 9.2 mph - N/A   Clear
9:14 PM 33.8 °F 24.8 °F 23.0 °F 65% 30.22 in 10.0 mi SSE 12.7 mph - N/A   Clear
9:33 PM 33.8 °F 25.3 °F 24.8 °F 70% 30.22 in 10.0 mi SSE 11.5 mph - N/A   Clear
9:53 PM 33.8 °F 26.4 °F 24.8 °F 70% 30.22 in 10.0 mi SE 9.2 mph - N/A   Clear
10:14 PM 33.8 °F 25.8 °F 24.8 °F 70% 30.21 in 10.0 mi SE 10.4 mph - N/A   Clear
10:33 PM 32.0 °F 23.0 °F 24.8 °F 75% 30.20 in 10.0 mi SE 11.5 mph - N/A   Clear
10:53 PM 33.8 °F 25.3 °F 24.8 °F 70% 30.20 in 10.0 mi SE 11.5 mph - N/A   Clear
11:14 PM 33.8 °F 25.3 °F 26.6 °F 75% 30.20 in 10.0 mi SSE 11.5 mph - N/A   Clear
11:33 PM 37.4 °F 28.2 °F 26.6 °F 65% 30.19 in 10.0 mi SSE 16.1 mph - N/A   Clear
11:53 PM 37.4 °F 27.8 °F 28.4 °F 70% 30.19 in 10.0 mi SSE 17.3 mph 20.7 mph N/A   Clear